Location: Arlington
(38.8904°N, 77.0841°W)
Time: 06:14:50
(UTC+00:00)

Daily predictions for brighter satellites

Satellite Brightness Start Highest point End
(mag) Time Altitude Azimuth Time Altitude Azimuth Time Altitude Azimuth
Cosmos 1140 Rocket 3.5 22:15:35 10° SSW 22:20:45 80° ESE 22:25:56 10° NNE
Cosmos 1269 Rocket 4.1 22:17:19 10° SSW 22:22:33 86° WNW 22:27:51 10° NNE
SL-16 R/B 3.3 22:16:28 10° N 22:22:35 56° WNW 22:28:38 10° SW
BREEZE-M DEB (TANK) 2.9 22:24:20 10° WSW 22:26:18 42° NNW 22:29:50 10° NE
Thor Agena Rocket 3.7 22:22:02 10° SSE 22:27:17 88° WSW 22:32:36 10° NNW
Cosmos 1833 Rocket 2.7 22:22:41 10° NNW 22:28:18 63° ENE 22:33:52 10° SE
SAR-Lupe-3 3.9 22:26:21 10° NNE 22:28:57 51° E 22:31:31 10° S
SJ-12 4.0 22:27:27 10° SE 22:31:04 44° ENE 22:34:43 10° N
CZ-4C R/B 4.3 22:29:24 10° WNW 22:31:37 13° NNW 22:34:05 10° N
YAOGAN 1 4.1 22:31:34 10° E 22:33:56 15° ENE 22:36:18 10° NNE
Cosmos 2251 Rocket 4.4 22:31:05 10° SSE 22:35:29 28° E 22:39:55 10° NE
Cosmos 1812 3.0 22:41:49 10° SSE 22:44:17 25° E 22:46:32 11° NE
IRS-P3 4.2 22:39:22 10° SSE 22:44:32 54° ENE 22:49:44 10° N
NOSS 3 (A) 3.3 22:43:27 10° SW 22:45:15 67° WNW 22:46:18 18° NNE
SJ 16-02 2.7 22:42:45 10° SE 22:45:43 18° E 22:47:35 14° ENE
Cosmos 1441 Rocket 4.5 22:43:26 10° NNW 22:46:35 38° W 22:49:43 10° SSW
Okean 2 Rocket 4.4 22:45:24 10° SE 22:48:26 18° E 22:50:29 14° NE
Cosmos 2058 4.0 22:45:53 10° NNE 22:48:56 21° ENE 22:51:58 10° SE
OAO 2 Rocket 3.8 22:48:56 10° WSW 22:53:49 54° S 22:57:57 15° E
Cosmos 1400 Rocket 4.0 22:51:30 10° SE 22:54:18 20° E 22:55:02 19° ENE
Cosmos 1869 2.8 22:51:56 10° S 22:55:28 77° E 22:58:59 10° N
ARIANE 5 R/B 2.6 22:51:32 10° S 22:56:31 80° WSW 23:01:31 10° NNW
Tiangong 0.8 22:55:12 10° WSW 22:57:10 15° SW 22:59:08 10° S
Cosmos 44 Rocket 3.2 22:54:02 10° SSW 22:58:41 66° ESE 23:03:04 13° NE
DNEPR-1 R/B 4.3 22:54:07 10° NW 22:58:45 67° WSW 23:04:13 10° SSE
SMAP 3.8 22:55:35 10° S 23:00:08 56° W 23:04:44 10° NNW
Timation 2 Rocket 4.2 22:54:05 10° SSW 23:00:56 87° ESE 23:07:51 10° NNE
AQUARIUS 4.2 23:05:01 10° S 23:09:24 79° WSW 23:13:50 10° NNW
Cosmos 1190 Rocket 4.2 23:06:50 10° S 23:11:56 51° ESE 23:16:32 13° NNE
Landsat 7 4.4 23:08:35 10° S 23:13:09 58° W 23:17:45 10° NNW
SL-4 R/B 4.2 23:11:04 10° W 23:13:50 22° SW 23:16:42 10° S
IRAS Rocket 4.4 23:09:02 10° SE 23:14:22 50° ENE 23:19:43 10° N
SL-19 R/B 4.3 23:11:16 10° SE 23:16:12 44° ENE 23:21:08 10° N
Meteor 2-12 Rocket 4.4 23:13:08 10° N 23:19:15 86° W 23:25:18 10° S
SPOT 1/Viking Rocket 3.4 23:17:11 10° SSE 23:22:18 71° ENE 23:27:28 10° N
Geosat FO 4.2 23:22:27 10° SSE 23:25:21 73° WSW 23:28:14 10° NNW
Cosmos 407 Rocket 4.3 23:20:21 10° SW 23:25:25 52° WNW 23:30:27 10° N
Cosmos 1954 Rocket 4.1 23:20:44 10° S 23:25:52 56° ESE 23:29:11 22° NE
ATLAS 2AS CENTAUR R/B 4.4 23:23:49 10° N 23:26:47 13° NNE 23:27:19 13° NNE
ISS -2.1 23:24:17 10° W 23:27:10 26° NNW 23:28:15 22° N
Cosmos 1464 Rocket 3.9 23:23:21 10° S 23:29:39 73° E 23:35:53 10° N
Cosmos 1943 Rocket 2.7 23:24:28 10° SW 23:30:00 59° WNW 23:35:32 10° NNE
Cosmos 371 Rocket 3.5 23:25:32 10° S 23:30:04 45° ESE 23:31:09 38° ENE
Cosmos 2278 Rocket 2.6 23:24:47 10° SW 23:30:22 62° WNW 23:35:59 10° NNE
Cosmos 2151 Rocket 3.5 23:26:09 10° S 23:30:36 73° E 23:35:05 10° NNE
Cosmos 2082 Rocket 2.5 23:25:41 10° N 23:31:02 43° ENE 23:33:06 31° ESE
Aureole 3 Rocket 3.3 23:28:37 10° SSW 23:31:39 44° W 23:34:34 10° N
OAO 3 Rocket 3.5 23:27:16 10° WSW 23:31:46 50° S 23:33:15 35° ESE
NOAA 15 4.5 23:30:43 10° SSE 23:35:58 76° ENE 23:41:17 10° N
Cosmos 304 Rocket 3.8 23:31:37 10° S 23:36:11 54° ESE 23:37:16 43° ENE
ATLAS 5 CENTAUR R/B 2.8 23:32:37 10° NW 23:37:16 52° WSW 23:42:57 10° SSE
Sich 1 Rocket 3.6 23:34:31 10° S 23:38:56 57° E 23:40:00 44° NE
MOS 1 Rocket 4.0 23:35:17 10° S 23:39:24 49° W 23:43:39 10° NNW
COSMO-SKYMED 1 2.5 23:36:04 12° N 23:39:56 76° WNW 23:44:01 10° SSW
USA 215 3.9 23:34:00 10° SSE 23:40:21 54° SW 23:46:45 10° NW
Spot 4 Rocket 3.9 23:36:06 10° SSE 23:41:12 89° ENE 23:46:19 10° NNW
Cosmos 2034 Rocket 3.9 23:35:35 10° S 23:41:37 59° E 23:47:44 10° NNE
Helios 1A Rocket 3.2 23:43:03 25° N 23:44:44 50° WNW 23:48:01 10° SSW
Okean 1 Rocket 2.9 23:41:42 10° S 23:46:04 67° E 23:46:30 62° ENE
Timation 1 Rocket 4.3 23:40:08 10° NNW 23:46:06 87° WSW 23:52:04 10° SSE
RESURS DK-1 2.7 23:52:07 10° NNW 23:56:04 62° WSW 23:57:09 43° S
